Regional Weather Roundup
Issued by NWS

Home | Current Version | Previous Version | Graphics & Text | Print | Product List | Glossary On
Versions: 1 2 3 4 5 6 7 8 9 10 11 12 13 14 15 16 17 18 19 20 21 22 23 24 25 26 27 28 29 30 31 32 33 34 35 36 37 38 39 40 41 42 43 44 45 46 47 48 49 50
000
ASUS43 KBIS 231802
RWRND

NORTH DAKOTA REGIONAL WEATHER ROUNDUP
NATIONAL WEATHER SERVICE BISMARCK ND
100 PM CDT FRI JUN 23 2017

NOTE: "FAIR" INDICATES FEW OR NO CLOUDS BELOW 12,000 FEET WITH NO
SIGNIFICANT WEATHER AND/OR OBSTRUCTIONS TO VISIBILITY.


NDZ001>003-009>011-017-231900-
NORTHWEST NORTH DAKOTA

CITY           SKY/WX    TMP DP  RH WIND       PRES   REMARKS
WILLISTON      SUNNY     64  33  31 NW28G40   30.14R
6HR MIN TEMP:  48; 6HR MAX TEMP:  64;

MINOT          PTSUNNY   62  38  40 W24G35    30.03S
$$

NDZ018>021-031>035-040>046-231900-
SOUTHWEST NORTH DAKOTA

CITY           SKY/WX    TMP DP  RH WIND       PRES   REMARKS
BISMARCK       MOSUNNY   62  36  37 NW22G31   30.07S
6HR MIN TEMP:  55; 6HR MAX TEMP:  66;

DICKINSON      CLOUDY    62  28  27 NW23G33   30.11F
GARRISON         N/A     58  37  45 NW26G33   30.05S
6HR MIN TEMP:  50; 6HR MAX TEMP:  60;

HETTINGER ARPT SUNNY     60  29  30 NW29G39   30.15F
$$

NDZ004>008-012>016-024-026-027-054-231900-
NORTHEAST NORTH DAKOTA

CITY           SKY/WX    TMP DP  RH WIND       PRES   REMARKS
GRAND FORKS    CLOUDY    63  49  60 NW22G28   29.88S
GRND FRKS AFB  PTSUNNY   63  46  54 NW15G32   29.89S
DEVILS LAKE    CLOUDY    61  42  49 NW22G29   29.94S
$$

NDZ022-023-025-028>030-036>039-047>053-231900-
SOUTHEAST NORTH DAKOTA

CITY           SKY/WX    TMP DP  RH WIND       PRES   REMARKS
FARGO          CLOUDY    63  49  60 NW23G29   29.89S
6HR MIN TEMP:  61; 6HR MAX TEMP:  64; 6HR PCP: TRACE;

JAMESTOWN      CLOUDY    61  43  51 NW24G32   29.96S
$$




USA.gov is the U.S. government's official web portal to all federal, state and local government web resources and services.